Theta_e
360 360 361 357 358 358 352 347 326 330 331 316 320 322 319 334 332 330 327 332 328 333 333 334 333 330 328 325 327 329 330 325 327 319 318 338 351 349 351 353 352 353 354 357 358 358 361 360 359 360 362 362 362 362 363 361 360 358 356 355 356 356 355 357 356 355 358 361 361 362 360 362 362 362 360 359 358 360 360 361 361 360 358 357 356 358 360 360 359 361 360 360 361 361 360 361 361
358 359 357 358 355 353 340 347 328 323 323 317 320 323 326 329 333 325 326 330 327 329 333 333 333 334 332 332 330 331 330 333 334 331 341 348 350 351 351 352 350 350 354 358 360 360 359 363 359 360 360 361 363 363 362 361 358 357 357 354 354 356 357 356 357 358 361 361 361 361 361 362 362 363 362 361 361 360 360 361 361 359 360 358 357 356 358 360 360 359 359 360 360 360 360 360 360
357 357 355 356 352 349 347 342 323 320 315 312 319 323 331 327 326 328 331 332 331 333 333 332 334 333 331 331 327 329 323 336 335 339 340 348 343 348 352 354 355 355 356 358 358 359 362 363 359 360 361 361 363 363 362 362 361 358 356 354 354 354 357 356 356 359 361 361 361 361 362 361 361 362 363 363 362 361 360 361 362 362 360 361 358 358 357 358 360 360 360 360 360 360 360 360 361
359 358 352 352 343 348 338 334 326 319 314 316 317 327 329 326 328 333 335 332 333 333 332 330 329 335 332 326 327 332 331 331 337 338 338 340 344 350 354 356 360 356 357 358 358 360 359 361 359 361 361 362 362 362 361 360 360 358 356 357 354 354 354 357 359 361 362 360 361 361 362 361 361 362 362 363 363 361 361 361 362 362 362 362 359 358 358 358 358 360 360 360 360 360 360 360 360
357 356 355 349 342 334 336 330 325 323 313 319 316 327 329 330 331 334 333 333 333 333 331 331 330 336 337 335 334 327 328 335 338 340 340 345 350 353 356 356 356 356 356 357 359 360 361 361 360 361 362 361 360 361 359 359 360 357 357 358 355 354 356 359 360 361 362 360 362 362 361 361 361 362 362 362 363 361 361 362 361 361 362 360 361 358 356 356 358 360 360 361 360 360 359 360 359
355 355 356 351 339 347 336 325 321 323 326 329 322 325 330 333 333 333 331 333 334 335 334 332 329 329 330 332 335 330 335 329 338 341 344 345 350 355 357 358 356 356 357 360 360 362 359 363 362 362 359 356 359 361 360 358 359 359 360 359 358 357 362 360 360 362 362 361 363 362 363 362 361 361 361 362 362 362 362 361 362 361 361 361 359 359 356 354 357 359 360 360 361 360 360 359 359
352 351 350 349 345 345 328 324 321 322 327 332 327 328 331 334 334 332 330 331 333 334 335 331 333 331 328 333 335 339 342 340 338 341 346 348 352 354 356 356 356 357 358 360 361 362 362 362 363 359 354 354 357 359 360 359 359 359 359 359 357 360 361 362 361 362 362 362 362 362 362 361 362 361 362 361 362 362 361 361 361 360 360 361 360 359 359 358 358 359 360 360 361 360 361 361 361
356 345 344 337 332 333 326 325 325 327 327 335 335 332 335 336 335 332 330 328 327 329 332 334 334 331 327 337 328 338 342 345 344 349 349 350 351 352 354 354 354 354 357 360 363 363 365 362 357 356 355 356 355 353 356 358 360 358 356 359 357 361 361 361 361 362 362 361 361 362 362 361 362 362 362 361 361 361 361 361 360 360 360 360 359 359 360 359 358 359 361 361 361 361 361 361 361
352 348 349 337 327 331 325 325 326 332 331 334 337 339 337 338 337 333 330 330 330 332 331 333 333 327 328 331 331 338 341 345 348 351 348 349 348 350 352 351 350 352 354 356 360 363 354 355 354 353 352 353 356 356 357 359 360 358 358 360 360 361 360 361 360 361 360 360 361 361 361 361 362 362 363 362 362 361 362 361 361 361 360 360 360 358 359 358 358 358 359 361 361 361 361 361 362
348 345 335 333 333 324 324 321 324 328 331 336 334 336 337 338 336 335 330 328 330 332 332 335 335 330 330 326 331 336 338 345 347 347 349 349 350 351 352 352 352 352 353 358 361 361 360 356 350 350 354 353 354 356 355 359 359 359 359 359 359 360 359 359 360 360 359 360 360 360 361 362 363 362 362 362 361 361 361 362 361 361 362 361 359 358 358 358 357 357 357 360 359 359 362 363 362
338 346 344 330 325 322 321 320 325 329 332 336 338 340 340 340 336 334 333 332 332 331 332 334 331 329 329 330 336 345 344 344 344 343 348 350 351 352 352 353 353 353 355 358 360 360 357 356 353 352 352 355 356 357 356 356 356 358 358 357 359 359 358 358 357 358 359 360 360 360 360 361 362 363 362 362 361 361 362 362 361 361 362 361 359 358 358 358 357 354 357 359 356 360 362 362 362
336 336 337 325 323 322 323 323 325 328 332 334 333 339 340 337 337 332 331 328 330 330 330 333 329 333 328 329 333 341 343 343 344 347 350 350 351 353 353 353 353 355 356 359 359 358 358 356 355 353 353 354 356 355 355 356 356 357 357 357 357 356 356 356 358 359 359 360 360 361 361 361 362 362 362 362 362 362 362 361 361 360 360 359 359 357 358 359 355 351 358 360 359 361 361 362 363
338 338 335 327 324 326 327 326 326 327 329 331 332 340 341 337 334 333 332 330 331 328 329 335 334 333 324 328 337 340 340 344 345 348 349 351 352 353 352 351 353 355 359 360 357 356 358 351 353 355 356 357 357 357 357 357 357 356 356 356 355 356 355 356 358 359 359 359 359 360 360 360 362 361 362 361 362 362 362 362 359 360 360 360 358 357 358 358 355 357 361 360 360 362 362 362 363
339 339 334 326 328 328 325 327 328 324 324 333 338 340 340 335 336 335 333 329 330 330 333 336 334 332 330 332 333 335 340 345 346 349 351 352 353 352 351 352 354 357 359 359 356 355 360 355 354 356 356 358 360 359 358 357 357 357 357 356 355 356 356 357 359 358 359 360 359 360 359 361 361 361 361 362 362 362 362 362 363 362 360 358 359 358 359 360 362 361 362 361 361 362 362 362 362
340 343 336 331 327 327 330 324 326 322 323 331 336 338 339 342 338 335 334 329 331 335 336 338 336 331 324 327 328 334 340 345 348 350 351 351 350 350 352 352 355 356 356 356 356 356 354 355 355 356 355 357 357 359 361 359 357 355 357 356 356 356 356 355 358 359 358 359 360 359 359 362 361 361 361 361 363 362 364 363 362 362 361 361 362 362 362 362 361 362 362 362 363 362 362 362 361
343 340 336 327 323 324 325 328 330 327 326 332 337 338 338 338 339 335 338 338 332 335 336 329 336 332 330 327 333 339 343 346 350 350 350 349 349 351 351 351 353 354 356 357 355 355 355 354 353 354 358 360 358 360 360 359 357 354 355 356 355 355 355 355 357 358 359 359 359 358 358 361 358 360 362 363 362 361 361 363 362 362 362 361 361 362 361 361 361 362 362 363 363 363 362 362 361
344 342 330 324 321 324 325 326 327 320 328 337 339 336 330 332 341 343 342 338 331 331 333 333 332 336 332 333 340 342 345 349 350 349 349 348 348 347 349 351 352 353 352 356 358 355 355 357 353 356 358 360 360 361 361 360 359 354 354 353 354 355 355 357 358 358 359 358 359 358 357 356 360 362 362 362 361 365 362 362 362 362 361 362 362 362 361 361 364 365 365 364 365 365 364 363 362
339 332 325 320 324 322 326 330 331 333 331 333 337 335 332 330 334 335 337 334 334 333 332 335 336 337 341 342 344 345 347 347 347 346 345 344 345 343 343 347 348 349 350 354 357 355 354 357 354 355 357 362 362 360 360 360 360 356 354 356 355 356 357 356 359 359 358 362 358 361 363 360 360 357 361 361 361 365 364 361 362 363 362 362 362 364 363 364 365 365 364 363 363 363 363 361 364
334 330 326 321 326 329 336 336 338 336 330 337 337 338 333 331 333 336 333 330 330 328 329 333 334 338 341 342 343 345 345 345 345 345 343 341 342 339 341 345 349 348 350 353 355 356 356 355 356 354 356 359 361 361 358 359 361 360 357 359 357 353 356 356 359 361 364 362 363 364 364 359 359 362 365 362 362 361 362 361 362 361 362 362 363 363 363 363 363 362 361 361 361 362 359 358 360
337 329 324 326 332 332 337 341 339 341 340 336 337 338 334 334 335 337 331 329 331 326 326 330 331 332 336 339 342 343 344 343 344 344 342 341 342 340 340 343 347 349 350 351 354 356 356 355 358 359 358 358 360 361 359 358 361 361 359 359 356 356 357 356 360 360 361 362 362 363 362 361 362 363 360 361 362 365 362 361 359 360 361 361 360 360 360 360 359 359 359 360 364 364 360 357 356
337 330 326 332 335 330 340 340 344 343 341 341 339 339 336 337 335 334 332 329 328 327 329 329 330 332 335 338 340 341 341 341 343 343 342 341 340 341 341 345 347 350 352 354 355 355 357 359 360 361 360 360 362 362 359 358 360 358 357 357 358 357 356 355 355 360 361 362 363 363 362 362 362 364 365 365 364 365 363 363 362 362 362 362 359 360 359 361 360 360 361 359 359 356 357 359 358
331 329 333 333 335 331 341 341 342 343 343 342 340 335 335 341 334 332 332 327 326 327 330 332 333 336 335 336 338 340 339 340 342 342 341 339 341 341 342 346 349 352 353 353 353 355 355 359 361 361 362 362 360 362 362 360 358 357 356 357 356 356 358 358 357 359 359 361 362 362 362 362 362 363 364 362 362 364 361 360 360 360 360 360 362 358 357 359 359 356 356 355 355 358 354 356 357
323 332 335 336 336 333 339 340 340 341 342 338 338 337 342 337 333 335 332 332 334 333 334 335 335 337 337 338 338 338 339 341 342 341 340 342 343 343 343 345 348 349 351 352 353 354 356 357 360 361 360 362 361 364 363 360 359 356 356 357 356 354 357 358 359 359 360 361 361 362 361 360 361 359 360 360 360 361 358 357 357 359 359 358 361 358 358 358 355 353 355 359 358 355 352 356 358
325 322 334 336 337 334 338 338 340 338 339 339 342 344 337 335 329 334 331 336 337 336 336 337 338 338 339 336 337 339 341 342 341 343 344 344 344 343 344 346 349 352 352 350 352 352 354 353 356 358 359 362 364 363 363 359 360 361 361 359 359 356 357 356 358 359 361 362 363 363 362 363 361 359 359 359 359 359 357 358 360 357 359 357 360 359 356 354 353 354 357 357 355 357 353 356 355
324 324 336 337 336 338 338 337 337 338 339 342 341 339 335 335 333 332 332 333 335 336 338 339 339 339 339 338 339 341 343 342 343 345 345 346 346 346 347 349 352 352 350 350 351 352 353 355 356 356 360 362 362 361 360 359 359 361 361 360 359 358 359 357 356 359 359 360 364 365 365 361 359 360 359 359 358 357 358 358 357 357 359 357 359 355 356 355 354 352 357 356 357 357 355 355 355
328 330 333 334 336 338 337 337 337 338 338 339 336 335 336 333 333 330 334 336 337 337 337 339 339 338 338 339 341 342 342 343 345 344 344 346 345 345 347 349 350 349 350 351 351 352 354 354 354 355 358 361 361 361 361 361 361 360 360 361 360 361 360 360 361 359 361 362 363 364 362 362 359 358 358 359 356 357 357 358 359 359 357 356 356 356 357 355 353 353 355 357 355 357 355 356 356
332 332 337 337 336 336 338 335 336 337 336 337 333 328 330 336 330 326 337 336 337 336 336 338 338 337 338 339 341 343 342 344 345 345 346 346 345 346 347 349 350 350 351 350 351 352 354 354 354 355 358 361 359 356 361 362 362 360 361 360 360 360 360 362 362 362 361 361 361 364 364 364 359 357 357 357 357 357 359 359 358 360 357 356 358 358 359 357 355 355 359 357 360 359 356 356 356
332 334 336 338 337 337 337 337 336 337 333 335 331 328 331 332 333 330 334 337 338 334 336 336 337 337 338 339 341 344 345 346 347 346 343 344 345 347 347 349 350 350 350 350 352 355 354 354 353 354 356 358 357 355 359 356 358 358 360 360 358 359 360 359 359 361 360 360 361 362 362 361 362 360 360 359 358 358 357 359 358 357 358 357 358 357 356 358 358 360 362 363 362 361 358 356 357
334 335 332 335 336 333 336 335 336 335 330 336 336 329 325 326 326 335 336 338 336 335 334 335 336 337 339 340 341 344 344 345 345 345 344 347 348 348 347 350 350 351 352 351 352 353 352 353 353 355 356 358 356 354 355 356 356 356 357 356 358 358 360 360 360 360 361 361 362 362 364 364 363 360 360 361 360 358 359 359 356 358 358 359 359 362 361 359 359 359 359 361 359 361 356 355 352
336 334 333 332 331 329 336 339 337 334 334 335 337 312 319 325 332 336 337 337 336 334 334 334 335 338 339 339 340 342 344 344 344 346 347 347 348 348 349 350 351 352 353 353 351 351 352 353 353 354 356 355 357 355 356 357 357 357 358 357 358 359 358 359 359 360 359 360 362 363 363 364 362 362 363 363 360 358 360 359 356 357 360 361 361 362 357 356 356 357 358 357 356 358 353 354 351
329 333 333 325 320 319 333 336 335 330 333 336 336 315 318 327 333 337 336 336 334 332 333 333 334 336 338 338 338 339 342 344 343 345 346 347 348 349 350 350 352 352 353 351 350 351 351 352 353 353 355 355 357 356 356 356 357 357 356 357 358 358 359 358 357 359 357 359 360 361 363 364 365 365 366 364 362 361 356 355 356 355 360 361 356 361 359 358 358 358 357 358 357 353 352 354 351
332 323 321 324 319 322 329 337 336 326 332 338 335 319 319 325 328 338 338 336 336 333 332 332 333 334 336 338 337 338 339 343 344 345 346 347 348 349 350 350 352 351 351 352 351 350 350 352 354 353 354 355 356 356 357 358 357 357 357 356 358 360 357 358 357 358 357 358 358 361 365 365 364 367 366 366 360 358 355 355 355 361 365 360 358 360 360 357 358 358 360 359 355 351 353 349 353
327 321 320 319 320 320 326 332 334 335 334 335 332 317 323 325 331 336 338 337 335 333 331 332 332 334 335 336 336 337 339 341 343 344 346 347 349 349 350 351 352 352 352 352 351 351 350 351 354 352 352 353 356 355 358 359 358 358 358 356 355 358 355 355 356 358 357 358 356 357 363 363 366 366 367 367 363 360 356 357 357 360 363 359 363 358 355 357 359 353 360 361 360 355 348 346 349
321 323 319 323 320 321 320 330 332 332 334 327 331 325 322 328 333 335 337 337 336 332 331 332 332 333 334 335 334 336 340 339 340 344 345 347 348 350 351 353 353 354 353 352 353 351 350 351 354 353 354 354 356 357 359 357 358 359 356 356 358 356 354 355 356 356 356 356 358 358 363 363 366 366 367 366 364 361 359 360 360 364 363 363 360 357 356 358 360 358 357 361 360 357 349 349 348
316 318 318 320 322 323 321 318 324 331 330 328 328 327 324 328 331 334 337 339 336 334 333 332 331 332 333 332 333 336 338 338 340 344 345 347 348 350 351 353 354 355 353 353 355 356 355 353 356 355 354 355 355 358 359 359 358 359 356 356 357 357 357 355 355 354 355 357 356 362 366 363 366 366 366 367 366 359 360 361 361 366 363 362 360 357 357 360 360 359 359 361 365 358 353 352 351
319 321 319 320 317 318 319 326 332 332 325 325 325 322 325 328 331 333 336 338 337 336 336 334 333 333 333 332 331 335 337 338 341 344 346 347 349 350 351 353 354 355 354 355 357 356 357 356 357 357 356 354 355 357 358 356 355 353 352 354 354 354 355 355 358 356 358 357 358 359 364 363 365 366 367 367 367 364 360 360 363 363 361 360 357 356 356 359 360 361 361 359 358 356 355 354 353
322 323 320 319 319 323 327 329 331 333 325 324 326 326 326 327 330 333 335 337 337 337 336 334 334 334 332 331 330 335 337 337 342 344 346 347 349 351 353 354 354 354 356 356 356 356 357 356 356 355 356 356 355 355 355 353 352 351 352 350 349 351 353 355 355 357 358 357 359 360 364 361 366 367 367 367 364 362 364 363 363 362 361 361 361 359 360 361 365 365 363 367 355 353 349 349 349
317 318 320 317 317 318 328 328 331 335 327 323 324 324 325 325 328 332 334 334 334 334 335 334 334 334 333 332 330 334 337 340 342 343 344 347 348 351 353 354 355 354 356 355 355 356 357 356 355 356 357 357 355 355 354 354 355 352 352 350 349 350 353 352 355 356 356 357 362 364 364 364 366 366 367 367 366 363 363 360 363 362 362 363 364 365 365 365 365 364 363 358 355 351 350 349 346
317 316 319 317 317 325 327 330 330 332 326 318 325 321 323 326 327 330 333 334 335 337 337 336 335 335 334 331 331 333 335 339 340 341 343 345 347 349 352 353 354 355 355 353 356 356 358 357 358 359 357 358 356 355 356 355 356 357 353 352 353 352 356 357 355 357 359 358 360 363 365 365 365 364 366 366 365 364 362 361 362 363 364 365 364 363 364 363 363 363 362 356 349 352 350 352 355
314 314 314 310 315 317 312 326 329 331 328 325 326 322 323 326 327 328 334 335 336 339 340 340 338 336 334 332 332 332 334 338 338 340 339 343 346 349 351 353 354 355 355 354 353 356 357 359 361 360 359 359 358 357 357 358 359 359 358 356 358 357 356 360 360 360 360 360 359 362 365 365 365 362 362 362 363 364 365 362 361 363 366 368 366 365 364 361 363 361 359 357 358 347 347 349 353
314 313 312 313 312 314 315 322 326 329 332 329 327 323 323 325 322 324 331 335 336 337 338 339 339 340 338 335 334 334 334 337 338 338 340 341 344 346 350 352 354 354 354 354 353 353 354 357 360 360 360 360 359 359 358 358 359 359 357 357 359 360 360 357 358 356 359 361 360 361 362 364 364 361 362 363 362 365 367 365 363 364 366 367 366 364 362 358 360 361 361 359 357 351 344 348 352
311 312 310 309 310 315 321 323 323 321 320 328 324 312 313 322 324 323 329 332 331 335 335 335 337 338 337 334 332 334 336 338 339 339 339 341 343 346 349 352 352 354 354 356 355 352 354 358 361 360 361 360 358 359 359 358 357 355 353 351 349 351 351 353 352 353 354 356 355 359 362 361 360 362 362 364 363 363 366 366 367 366 367 366 366 365 363 360 360 359 361 359 355 357 358 349 344
307 307 311 311 314 318 318 320 321 314 311 321 327 311 307 320 321 323 326 329 330 333 334 335 337 337 336 335 333 333 334 336 339 340 339 339 342 345 347 350 351 352 354 356 356 354 354 357 361 359 360 359 358 359 360 359 357 356 354 351 350 350 350 353 358 357 356 356 359 360 362 364 364 362 362 366 365 366 366 367 369 368 367 367 367 366 362 359 359 360 363 360 358 361 360 350 349
304 310 314 314 315 316 318 317 317 313 322 325 326 321 309 311 318 326 326 325 328 329 332 334 335 337 335 335 334 334 334 335 336 338 339 340 343 344 345 348 349 350 354 356 355 355 355 358 360 360 361 359 359 360 360 360 357 356 355 353 351 351 351 354 359 359 359 361 359 360 362 363 367 367 366 368 369 366 366 367 369 370 368 368 365 364 362 362 364 364 366 366 367 365 361 355 353
309 314 314 314 315 311 313 318 315 315 313 312 318 323 313 311 319 327 326 321 323 324 329 332 335 336 336 336 334 334 334 335 336 336 339 340 342 343 346 348 349 350 353 355 356 356 356 358 359 360 361 360 360 361 361 360 360 358 356 354 352 353 353 354 358 358 359 361 359 362 364 363 367 368 368 368 369 368 367 368 369 370 368 368 366 365 364 363 365 365 366 364 363 363 361 361 360
313 316 316 314 315 313 317 317 316 316 312 307 314 320 309 311 321 320 325 322 320 322 325 330 334 336 336 336 335 334 335 336 336 337 339 340 342 344 346 348 349 349 353 356 356 357 356 357 358 358 360 359 360 361 361 361 360 359 357 355 354 353 353 353 355 355 358 361 361 361 363 364 362 365 367 368 370 368 369 368 365 365 366 365 365 367 365 366 366 366 366 366 367 364 365 360 357
319 316 314 315 314 316 317 318 316 313 305 307 313 320 314 306 316 320 319 319 323 324 326 329 333 336 337 338 336 334 334 335 336 337 338 340 342 344 347 347 349 350 354 355 355 356 356 354 356 357 358 358 360 361 360 360 360 359 357 356 356 355 354 354 353 355 358 359 360 358 359 361 363 361 362 364 367 367 367 368 365 364 367 368 369 366 367 364 363 365 366 368 367 366 362 362 359
314 313 312 313 314 315 313 313 316 304 302 311 316 319 319 305 312 320 327 328 326 327 327 328 330 333 336 338 336 335 336 336 337 337 337 339 342 344 347 346 349 351 353 353 355 356 356 355 355 356 357 358 358 360 360 358 358 359 358 358 357 356 356 353 354 353 355 357 358 359 359 360 360 361 364 362 363 362 366 365 369 368 367 369 367 368 368 367 366 367 367 367 367 367 366 365 362
311 311 312 304 304 307 300 306 303 303 301 314 319 321 315 312 316 321 327 326 326 328 330 330 331 333 336 338 338 337 337 337 338 338 338 338 340 343 345 348 351 353 353 353 353 355 356 356 356 356 358 358 358 358 359 359 358 359 358 357 357 358 356 355 354 354 355 355 356 358 358 358 358 359 359 361 361 364 366 366 367 366 369 369 372 372 370 368 371 368 367 365 366 366 364 365 361
308 307 308 301 299 298 295 302 305 305 311 318 319 323 313 318 320 325 324 327 329 329 331 331 332 334 336 338 339 338 337 338 338 338 339 340 341 344 347 349 351 353 353 352 352 355 357 356 357 355 358 359 359 358 358 358 359 359 360 358 357 357 357 355 353 351 352 354 356 356 355 354 356 356 357 360 362 363 363 365 366 367 370 371 371 373 371 372 370 370 368 366 364 367 368 365 364
308 311 308 304 303 298 295 298 297 300 305 312 321 314 310 313 319 328 331 332 330 331 333 335 335 336 337 339 340 339 338 338 339 338 338 340 342 346 346 349 352 353 352 351 352 355 356 357 357 357 358 360 360 358 358 358 357 359 359 358 357 358 355 353 353 352 352 353 352 354 356 353 352 354 356 360 365 364 365 366 365 365 367 369 371 371 370 370 372 368 369 366 369 366 366 366 363
309 311 311 305 303 308 300 306 304 305 306 309 314 311 315 317 331 332 333 331 331 331 333 333 334 335 336 336 337 338 338 338 339 339 340 341 344 347 347 349 351 352 354 352 352 355 355 357 359 358 358 358 360 359 360 359 359 358 359 359 358 358 357 355 355 356 356 353 354 353 356 357 353 352 357 360 361 364 365 364 365 364 368 366 369 370 371 369 369 369 369 368 365 364 364 364 363
306 308 303 306 312 309 305 306 309 308 305 303 317 314 316 321 322 324 331 331 331 331 331 332 333 334 335 335 336 339 338 338 339 338 340 342 343 346 347 349 350 351 352 351 354 357 357 357 357 358 360 360 359 360 359 361 361 359 359 358 357 357 355 354 352 355 353 355 356 355 352 352 354 356 354 358 361 364 366 365 364 361 364 367 370 369 369 370 372 369 366 368 367 365 367 366 363
310 305 306 312 316 314 307 301 307 304 301 306 312 308 310 312 306 325 328 328 330 330 330 332 334 335 335 336 338 340 339 338 340 342 342 342 343 346 346 348 350 351 351 352 357 359 359 358 358 357 358 359 359 359 359 360 361 359 360 358 358 357 354 353 353 352 353 354 355 356 353 352 352 352 354 352 358 361 365 366 367 365 364 365 368 368 368 369 371 367 368 369 368 371 368 369 365
309 307 313 306 302 301 308 306 297 298 298 302 308 309 308 310 312 321 323 323 326 329 331 331 332 334 334 336 339 341 340 339 340 340 342 342 343 345 347 348 349 351 353 353 357 358 358 357 357 356 356 358 358 358 358 360 361 358 358 358 356 357 355 355 353 355 354 353 351 352 352 351 352 355 357 360 360 359 362 363 366 364 364 364 366 368 370 371 373 369 368 366 368 371 369 366 369
314 316 312 313 310 305 304 305 306 307 301 302 303 307 305 318 323 321 326 327 329 328 328 328 332 334 335 336 338 339 339 339 340 340 340 342 343 345 348 349 347 349 351 352 355 356 355 355 356 356 356 358 359 358 359 359 359 357 355 357 358 359 358 356 355 356 352 352 353 350 351 351 353 353 356 358 359 359 358 358 358 358 357 359 361 363 365 368 370 370 367 363 364 369 367 367 364
306 307 308 309 308 317 313 313 308 305 303 302 300 299 305 319 328 328 329 331 331 332 331 332 332 334 337 337 337 339 340 340 341 340 340 343 344 346 349 350 348 350 353 353 355 355 355 355 355 356 356 355 355 357 358 360 358 356 357 356 355 357 357 357 355 355 353 353 353 354 351 352 353 353 355 355 356 359 360 359 357 359 358 361 364 363 364 368 369 370 369 369 369 370 368 366 366
306 306 308 310 307 305 302 302 312 309 305 299 302 299 308 327 333 332 331 335 335 335 332 331 333 334 338 339 339 340 338 341 341 341 341 343 346 347 348 351 351 351 354 354 354 354 355 354 355 356 358 358 357 356 359 361 361 356 355 356 355 356 357 357 354 354 354 352 353 354 354 353 351 355 356 355 356 357 360 360 358 358 361 361 364 366 365 365 367 368 368 365 363 365 367 366 365
Wind_Speed
10 9 7 3 3 2 3 3 3 5 4 6 6 3 7 3 4 6 9 7 6 5 5 9 9 7 2 4 6 5 4 2 6 3 3 5 9 12 10 9 12 11 10 9 9 9 9 9 8 7 5 6 10 11 13 12 11 11 11 8 6 6 5 8 6 3 8 14 17 17 16 15 16 14 12 14 15 15 16 16 19 24 23 18 12 11 13 13 13 13 13 14 15 15 14 13 13
7 5 3 2 4 2 2 1 4 3 4 6 7 6 7 6 3 8 8 4 6 7 7 9 8 5 3 2 3 4 8 10 9 9 8 10 13 10 10 10 11 11 9 9 9 8 8 9 7 7 7 8 9 10 12 12 12 12 9 9 7 4 9 11 11 9 12 12 16 17 16 15 15 14 12 14 17 16 16 17 18 21 23 22 14 10 10 11 12 11 12 12 13 14 13 13 15
3 4 3 3 4 4 2 4 2 4 4 6 7 7 4 5 8 8 7 6 10 9 10 10 7 4 6 4 6 5 7 6 7 10 9 12 13 9 11 10 9 9 9 7 7 7 7 8 7 8 7 8 8 9 10 10 10 11 8 9 6 4 10 12 11 10 13 13 16 17 16 16 16 14 14 13 14 16 15 15 16 18 20 24 17 11 11 10 10 12 11 11 13 14 14 13 14
4 3 3 2 3 3 4 4 3 1 4 6 8 6 4 7 8 8 6 8 9 10 10 9 4 5 3 7 6 6 8 6 7 11 9 10 8 12 11 10 10 8 7 6 7 7 7 9 6 7 8 8 9 8 8 8 9 11 12 12 13 11 9 14 14 13 13 15 15 17 16 15 15 14 13 14 14 14 15 14 15 17 18 21 17 12 12 10 8 9 9 10 12 14 15 14 14
4 2 3 5 5 4 3 2 1 0 5 2 6 6 6 5 7 7 7 8 9 9 9 6 6 5 9 8 4 3 7 9 9 8 9 9 12 11 11 10 8 8 7 7 7 8 9 11 7 6 8 9 9 7 7 7 8 6 9 12 14 10 12 15 13 14 14 15 17 17 16 15 15 14 13 15 15 14 14 15 14 15 16 18 18 15 11 10 8 9 10 11 12 13 15 15 14
3 3 1 4 2 3 3 5 3 4 6 4 7 7 6 6 7 7 9 7 8 8 8 4 5 7 6 8 7 8 4 4 9 9 9 10 12 12 11 9 8 7 7 6 6 6 8 9 8 8 9 9 6 7 7 7 7 7 9 7 8 6 11 16 16 15 14 15 16 15 16 15 14 14 14 14 16 15 14 14 14 14 17 20 19 18 13 8 5 7 9 11 12 12 13 14 14
1 3 4 5 4 3 4 2 4 4 6 5 7 7 5 6 7 8 9 9 6 8 6 5 8 10 8 7 11 8 7 10 7 9 7 12 12 12 11 9 8 9 8 6 6 7 11 9 9 11 12 6 6 6 6 8 8 7 8 7 6 6 11 14 15 15 14 15 16 15 15 14 14 14 14 15 16 15 14 14 14 15 15 17 21 19 16 11 6 5 8 11 11 11 11 11 13
2 4 1 5 3 5 1 4 4 3 5 3 4 7 6 6 6 6 8 6 8 6 6 6 4 7 8 1 7 7 6 4 10 9 13 11 11 10 9 8 8 9 8 7 7 8 11 9 13 13 7 6 7 4 3 6 7 8 5 6 7 8 11 12 14 14 13 14 15 14 14 14 15 15 15 15 15 14 15 15 14 15 15 16 18 18 18 14 7 6 8 11 12 11 10 10 11
3 6 2 2 3 1 2 3 5 5 6 4 5 6 6 5 2 5 5 3 8 5 8 6 3 2 8 12 10 8 8 10 11 12 12 12 10 9 6 6 7 7 7 7 7 8 10 16 15 6 6 5 5 6 5 6 9 9 7 7 8 10 10 12 12 12 12 13 13 14 14 14 15 16 16 15 15 14 14 15 14 13 14 14 15 18 19 16 9 7 6 10 10 11 10 10 10
4 4 4 4 2 4 3 3 3 5 6 4 5 6 5 4 4 2 3 6 5 7 7 6 5 9 11 13 11 7 9 11 12 12 11 11 10 7 7 6 6 7 6 6 6 9 10 15 5 4 5 5 3 4 3 5 8 7 6 6 8 10 10 10 11 12 12 12 12 12 14 13 15 16 15 15 15 14 13 12 14 13 13 14 13 15 18 17 12 8 6 8 8 6 13 14 13
4 3 2 5 4 3 3 5 4 5 6 4 5 4 3 3 4 4 2 4 6 7 7 6 8 10 10 11 9 7 11 12 12 12 11 10 9 8 7 6 6 6 6 7 7 8 11 7 6 1 2 5 4 4 4 4 5 7 7 6 7 10 10 11 10 10 12 11 11 12 12 14 15 16 15 14 14 13 13 13 15 13 13 13 12 12 13 16 15 8 5 9 7 7 11 13 13
4 3 3 6 2 1 5 5 5 6 6 5 6 5 3 4 4 4 5 5 6 7 7 5 7 9 10 11 8 9 11 12 11 11 11 10 8 8 7 6 6 6 7 8 8 8 13 7 4 3 3 4 5 4 3 4 6 7 6 7 7 9 8 10 10 10 11 11 11 11 12 14 15 15 15 15 13 13 14 13 13 14 14 14 12 10 12 14 19 9 7 8 6 8 9 13 13
5 2 6 5 4 1 5 4 5 6 6 6 7 4 3 5 5 2 4 4 6 6 7 4 10 7 10 9 9 11 12 12 12 12 11 9 8 7 6 6 6 6 7 6 8 7 13 10 3 3 5 6 5 5 5 5 7 7 5 5 6 9 9 10 10 10 11 10 11 11 12 14 14 14 14 14 13 13 14 13 15 16 14 17 14 13 10 12 16 15 14 9 7 10 11 12 12
5 4 5 2 0 1 3 5 7 5 5 8 4 4 5 4 3 3 5 7 5 5 7 6 7 6 12 11 10 10 10 12 13 12 9 10 8 6 7 6 7 6 7 6 7 8 5 13 2 4 5 4 4 5 6 7 8 9 8 7 7 9 10 10 11 11 12 11 10 12 11 13 14 14 14 14 14 13 13 12 12 13 14 13 17 15 12 10 12 13 12 9 10 11 11 11 11
5 3 5 2 1 4 2 4 6 6 5 7 3 4 6 2 3 4 5 7 6 3 6 4 5 10 9 11 10 11 13 14 13 11 11 9 8 8 8 7 6 6 7 6 6 6 10 10 3 2 7 4 5 2 3 7 7 9 8 7 6 10 9 8 10 11 10 11 10 11 11 13 13 14 14 13 13 14 13 12 12 13 13 13 12 13 12 10 11 12 9 9 13 11 11 11 10
4 5 5 4 2 5 6 2 3 6 5 6 5 4 5 5 3 5 4 3 7 6 5 6 4 5 13 7 13 16 17 15 12 12 10 10 9 8 7 7 6 6 6 6 6 5 7 12 4 0 3 5 4 4 4 5 7 11 6 5 7 9 8 7 10 10 10 10 13 11 8 9 11 11 13 11 12 13 12 11 12 13 13 12 12 11 12 11 11 12 11 12 12 11 11 10 9
3 4 5 4 3 5 6 1 4 0 6 6 8 7 6 7 4 3 4 4 7 6 3 8 6 4 7 10 17 19 18 15 13 13 12 9 8 7 6 5 5 5 4 6 5 5 7 9 3 2 3 5 5 5 5 6 7 12 8 4 7 8 8 8 8 10 8 11 11 10 6 9 5 5 7 9 9 9 12 12 12 13 12 13 11 11 11 11 11 11 11 10 10 10 10 9 8
5 5 3 4 3 6 4 5 4 7 5 10 10 8 8 9 6 5 6 6 5 7 7 7 7 10 13 17 18 18 17 16 14 14 11 9 7 7 6 5 5 5 5 5 5 5 5 9 5 4 3 5 5 5 4 5 5 7 7 4 6 6 10 8 6 7 7 8 10 7 4 7 6 8 5 10 6 8 10 12 13 12 11 11 12 11 10 10 10 10 9 9 7 6 7 5 6
5 4 3 2 3 5 3 5 5 2 5 9 10 8 8 7 9 7 7 8 8 8 9 9 12 14 17 17 18 18 17 15 14 12 11 10 8 8 6 5 4 5 5 4 5 5 4 5 7 6 5 5 5 5 6 5 6 6 9 6 4 4 8 6 5 6 6 6 5 5 4 7 6 7 5 8 8 10 10 11 11 10 9 9 10 9 9 8 8 8 7 6 5 7 5 4 3
1 5 2 1 4 3 4 4 4 3 2 9 10 9 9 9 6 6 5 8 7 8 10 11 12 16 18 18 17 17 16 15 13 12 11 9 8 7 6 6 6 4 5 4 5 4 4 4 5 5 5 4 4 5 6 5 5 6 6 6 5 3 7 5 4 5 5 6 6 4 5 5 6 6 10 13 11 7 8 8 7 8 8 7 5 7 8 6 8 8 5 6 8 4 4 2 3
2 5 2 3 4 4 4 4 4 3 3 3 9 9 10 10 7 6 7 8 7 5 10 10 13 16 18 18 17 16 15 14 12 11 10 9 8 6 6 5 5 5 5 5 5 5 5 6 6 6 5 4 4 5 6 5 6 6 6 6 6 5 5 6 6 5 6 6 6 5 6 6 6 5 5 5 4 5 5 5 5 4 4 5 2 5 5 4 5 5 5 5 4 3 3 3 2
4 4 4 4 3 4 4 4 3 4 3 5 9 12 11 10 7 8 9 4 4 6 9 10 14 17 19 19 16 14 14 13 12 11 10 9 8 7 6 6 7 6 5 4 5 6 6 5 5 6 5 4 3 4 6 7 6 6 4 5 6 5 5 5 5 5 6 6 5 5 6 6 5 5 4 5 5 4 4 4 4 4 4 4 2 4 4 3 4 4 3 3 3 3 3 4 3
5 3 1 1 3 5 4 6 6 6 6 7 10 9 10 12 9 8 10 1 4 5 9 10 12 16 16 17 15 14 14 13 12 11 10 9 8 7 7 6 6 6 5 5 5 5 6 6 6 6 5 4 4 4 6 6 5 8 7 7 7 6 6 6 6 6 6 6 6 5 5 5 5 5 5 5 5 4 4 4 4 3 4 4 2 4 4 4 3 3 3 3 2 1 4 3 2
6 5 3 3 4 6 6 8 7 9 10 11 9 10 13 13 10 7 8 2 2 8 10 11 13 15 16 16 14 14 13 12 11 10 9 8 8 7 6 6 6 5 5 6 6 6 6 7 6 7 6 5 4 5 5 6 6 6 7 8 7 7 7 6 5 5 6 6 5 5 5 5 5 6 6 5 4 4 4 4 4 4 4 4 3 3 4 3 4 3 3 3 3 2 3 3 3
6 5 2 2 2 3 6 6 7 8 11 11 11 13 13 13 9 10 6 5 7 10 11 12 14 15 14 15 13 13 12 12 11 10 8 7 7 7 7 6 7 6 6 6 5 6 6 6 6 7 6 5 4 5 5 6 6 6 6 6 7 8 7 6 6 6 5 6 6 5 4 4 5 6 6 5 4 5 4 4 4 4 3 3 3 4 3 3 3 4 3 2 3 2 2 4 3
3 1 0 1 3 3 4 6 6 9 8 10 15 12 9 8 10 9 5 6 9 11 12 12 14 15 14 14 13 12 12 11 11 10 9 7 8 8 7 6 7 6 7 7 6 6 6 6 6 7 6 5 5 4 5 6 6 6 6 6 7 7 7 7 8 6 5 5 6 5 4 3 5 5 5 5 5 5 5 5 4 4 4 3 3 4 3 2 3 3 3 3 3 3 4 4 2
1 2 1 2 3 3 3 7 4 4 6 11 14 17 9 4 7 6 6 8 11 12 12 12 14 14 14 13 12 11 11 11 10 9 9 8 7 7 7 7 6 7 7 7 7 6 6 6 6 7 6 5 5 5 5 6 6 6 6 6 6 6 7 7 6 6 6 6 5 5 4 3 4 4 5 5 5 5 5 4 4 3 4 3 3 4 3 3 2 3 4 3 3 3 4 3 2
3 5 3 3 4 3 4 4 5 4 7 3 11 16 11 4 2 6 10 11 11 12 12 13 13 13 12 13 12 9 9 9 9 9 10 9 7 6 7 6 7 8 7 7 7 7 7 7 7 7 6 5 4 6 5 6 7 8 7 6 6 7 6 5 5 5 5 5 6 5 4 3 3 5 4 4 5 4 4 4 4 4 4 3 3 3 2 3 3 2 3 2 1 2 4 3 3
5 6 4 4 3 4 7 8 6 7 7 7 14 17 9 3 4 3 12 11 11 11 12 13 14 13 13 12 10 8 9 9 9 8 9 7 7 6 7 7 7 7 6 7 8 8 9 8 7 6 6 6 5 6 5 6 6 7 7 7 6 6 6 5 5 5 6 6 5 5 4 4 4 5 4 5 4 4 4 3 4 4 4 3 3 2 2 1 2 2 3 2 2 2 5 3 2
6 6 5 5 7 5 7 4 4 7 7 2 3 7 6 5 6 8 10 11 11 11 11 12 12 12 12 11 9 9 8 9 9 8 8 8 7 7 7 7 8 6 6 6 9 9 7 6 5 5 6 6 5 5 5 6 6 6 6 6 6 6 5 5 6 6 6 6 5 5 5 4 4 4 4 4 4 4 4 3 4 4 4 3 3 1 2 1 2 2 2 2 2 3 5 3 2
6 3 5 5 0 3 6 5 4 7 2 2 3 6 5 5 5 8 12 12 12 12 11 12 12 11 11 11 9 9 9 8 9 9 9 9 8 7 8 8 7 8 7 8 9 9 8 7 5 5 6 7 6 6 5 6 6 6 6 7 6 5 5 5 6 6 6 5 6 5 5 4 4 4 3 3 3 3 4 4 3 4 3 2 2 3 1 2 2 2 3 3 2 4 5 4 4
5 6 5 2 1 2 4 4 7 7 5 4 4 7 7 5 4 9 10 12 11 11 11 11 12 11 11 10 10 9 9 9 9 10 10 10 8 7 7 8 7 7 8 8 9 9 9 8 7 7 7 6 6 6 6 6 6 6 6 6 6 6 5 5 5 6 6 6 5 5 5 4 4 4 3 2 2 3 3 4 4 3 2 2 2 2 1 2 2 1 3 3 4 4 2 5 4
6 7 2 1 4 5 6 6 5 4 3 3 5 5 3 6 11 9 10 11 11 9 11 12 12 12 11 11 9 8 9 10 9 9 10 9 9 7 7 8 7 7 8 9 10 9 9 9 6 9 8 7 7 7 6 6 5 6 6 7 7 6 6 6 5 5 6 5 5 5 5 4 4 3 3 2 1 3 3 4 4 4 2 2 1 1 1 2 2 3 2 4 3 1 2 6 4
6 6 3 2 1 6 3 6 3 2 2 5 5 4 5 7 8 9 10 10 11 10 11 12 11 10 10 10 10 9 8 9 10 10 11 9 9 8 8 6 8 7 8 9 10 9 9 9 7 8 7 7 6 6 6 6 6 6 5 5 5 5 6 6 5 5 5 5 5 5 5 4 4 3 2 1 1 1 3 3 3 3 2 1 1 2 1 1 1 2 3 3 3 1 2 3 3
4 3 3 4 0 4 5 5 4 2 2 3 4 4 7 6 8 8 9 10 10 10 10 10 11 11 10 10 10 10 9 10 10 9 12 10 11 9 8 8 8 8 8 10 9 9 8 8 7 7 7 6 7 6 6 6 6 5 5 6 5 4 4 5 5 4 4 5 5 5 3 3 3 2 2 1 0 2 2 3 2 2 2 1 1 3 2 2 2 3 3 3 1 2 2 2 3
3 4 3 2 2 4 3 5 6 2 4 5 4 4 4 5 8 8 8 9 10 9 9 9 10 11 11 10 10 10 10 10 10 11 12 10 9 9 8 8 7 7 8 9 10 9 9 9 8 8 7 7 7 6 5 6 6 6 6 6 5 4 4 4 4 4 4 4 5 5 3 2 2 2 1 1 1 1 2 2 3 2 2 2 1 0 1 1 3 3 3 4 1 3 2 3 4
3 3 1 2 2 7 3 3 3 2 2 3 2 1 1 5 7 7 8 8 9 9 9 9 9 9 11 10 11 11 11 11 10 12 10 10 11 9 9 8 8 8 9 10 10 10 10 9 9 9 8 8 7 7 6 6 6 6 6 6 6 6 5 5 4 4 4 4 5 4 3 3 2 2 1 1 1 1 1 2 2 2 2 2 2 1 1 3 3 3 2 1 1 3 4 3 3
4 4 3 6 4 0 4 2 3 2 7 6 2 1 3 4 6 7 8 9 11 11 10 11 11 10 9 10 12 12 11 9 12 10 10 11 10 11 10 8 9 10 9 10 10 10 10 10 10 9 9 8 8 7 6 6 6 6 6 6 6 6 6 5 4 4 4 5 4 3 3 3 2 1 2 1 1 2 2 2 3 3 3 2 1 0 1 2 2 3 3 1 3 3 3 1 4
5 4 3 8 3 2 4 4 2 1 2 6 6 4 4 3 4 6 8 10 9 9 10 10 11 11 9 10 11 13 12 10 10 11 10 11 11 12 9 9 10 10 11 11 11 11 10 9 9 9 9 9 8 8 7 6 6 5 6 6 6 6 5 5 5 4 3 5 5 4 3 3 2 2 2 2 2 3 2 3 3 3 2 2 1 1 0 1 2 3 1 2 2 4 3 3 3
5 5 2 1 0 5 3 5 2 3 4 2 2 5 5 5 3 6 8 9 8 8 8 9 10 11 11 11 11 13 13 11 11 11 12 11 11 11 10 9 10 10 10 10 11 11 10 9 9 9 9 9 8 8 7 7 7 6 4 6 5 5 5 4 4 4 4 4 5 5 3 3 2 3 4 4 3 3 3 3 3 3 2 1 1 0 0 0 1 1 3 4 3 2 4 5 2
8 4 6 5 4 2 6 3 2 1 3 3 3 6 7 8 7 7 9 10 8 9 9 9 9 10 11 11 11 13 14 12 11 11 11 12 11 11 10 10 10 10 10 11 11 11 8 11 10 10 9 9 8 8 8 7 7 7 6 6 5 4 4 5 5 5 5 4 5 5 5 4 3 3 4 3 4 4 2 2 3 3 2 1 1 1 1 0 2 2 2 1 4 5 3 4 3
7 6 2 6 1 1 3 3 4 4 3 7 7 6 8 11 11 10 9 10 12 10 11 11 11 11 11 12 12 12 12 13 11 11 11 11 11 11 11 11 11 11 11 11 11 11 10 10 11 10 9 8 9 10 9 7 7 7 7 7 7 6 6 6 6 7 7 6 6 5 6 6 5 5 4 4 4 4 4 3 3 3 3 2 1 1 1 0 1 2 4 3 2 3 4 2 6
7 8 6 3 3 1 1 2 4 4 3 5 7 6 1 0 8 11 10 12 14 12 13 12 12 12 12 11 12 13 13 13 13 11 11 12 11 11 11 11 11 11 11 11 10 11 11 11 11 11 9 8 9 9 9 7 7 7 8 8 7 7 7 6 5 5 5 5 4 6 5 5 5 5 5 4 4 3 4 4 3 3 2 2 1 2 2 3 1 3 3 3 4 4 3 2 0
4 7 6 6 4 0 1 3 5 3 5 4 6 6 6 3 7 11 12 12 12 14 14 14 13 13 14 14 13 13 14 14 12 12 12 11 11 11 12 12 11 11 11 11 11 11 12 11 12 11 9 9 9 10 10 8 8 8 8 7 7 6 7 6 5 4 4 3 4 5 5 5 5 2 4 4 4 4 4 4 3 2 1 1 1 2 1 1 2 3 3 3 3 2 3 4 5
5 3 5 4 4 3 7 4 3 3 6 5 7 6 5 4 4 9 14 13 13 13 15 16 15 15 15 15 15 15 15 15 14 13 13 12 11 12 11 11 11 11 12 12 11 11 11 11 11 11 10 10 9 11 10 9 8 8 8 7 6 5 6 6 5 5 5 4 5 4 3 4 4 4 3 3 3 4 4 4 3 2 2 2 2 2 1 2 1 3 2 1 2 2 3 3 2
6 4 4 6 5 6 3 6 5 8 7 8 7 9 6 5 8 7 10 10 12 14 15 16 17 16 16 15 15 16 15 14 14 13 13 13 12 12 11 11 11 11 11 12 11 11 12 11 11 12 12 10 10 11 10 10 9 8 8 7 8 6 6 6 6 5 5 4 4 5 4 3 5 5 5 3 4 4 4 5 5 4 3 2 2 2 1 2 2 2 1 3 3 2 1 2 2
6 6 5 5 4 4 3 2 4 4 8 9 7 11 9 6 6 10 10 9 13 12 11 15 16 17 17 16 16 15 15 15 13 13 13 13 13 12 11 11 11 11 11 13 12 12 12 12 12 13 12 10 11 12 11 11 9 8 7 7 8 8 7 7 6 6 5 5 4 5 5 4 3 4 5 5 5 5 5 4 5 5 3 3 1 2 3 3 4 3 3 2 2 2 2 2 0
9 7 7 4 4 4 4 4 4 7 6 0 1 8 9 8 3 5 10 10 13 13 15 19 20 20 18 16 16 17 16 15 14 14 14 14 13 12 10 10 11 12 12 13 12 12 12 12 13 13 13 12 12 12 12 11 10 9 8 8 8 8 8 7 7 7 6 6 5 5 4 4 4 4 4 4 5 6 5 5 4 4 3 3 3 2 1 1 0 2 2 1 2 1 1 1 3
9 8 8 9 6 4 3 7 8 8 6 4 2 3 6 12 11 4 8 10 10 12 13 18 20 21 20 18 18 16 15 15 14 13 13 12 12 11 12 11 12 12 12 14 13 13 13 13 14 14 13 13 12 12 12 12 10 9 9 9 9 7 8 7 7 7 7 6 5 5 5 4 5 4 5 5 5 6 5 4 4 4 3 2 1 2 1 0 1 0 2 2 1 1 1 1 2
10 11 9 10 8 5 7 6 5 5 4 1 3 4 8 8 8 12 14 11 11 13 15 17 19 20 20 19 17 16 16 15 15 14 13 12 11 12 12 12 13 13 14 14 14 13 12 12 14 15 14 13 12 12 12 12 11 10 9 9 8 7 8 8 7 7 7 6 5 5 6 6 6 6 6 5 4 6 5 5 4 4 3 2 2 1 0 1 0 2 2 1 3 1 1 1 3
9 8 10 10 9 7 8 7 7 6 1 6 5 5 3 6 6 6 5 1 8 11 13 14 16 18 19 19 17 17 17 16 14 14 14 13 13 13 12 12 12 13 14 14 13 13 12 13 14 15 15 14 14 13 12 12 11 11 10 9 8 7 8 7 7 6 7 6 6 6 5 5 5 6 5 5 4 3 4 3 3 3 4 3 3 3 2 2 1 2 1 2 2 3 3 3 3
10 9 9 10 12 6 9 2 6 4 5 5 7 5 3 1 5 5 5 6 3 7 11 12 14 14 16 17 17 16 16 16 15 14 13 14 14 14 13 13 13 12 13 13 14 13 13 13 15 15 15 15 14 14 13 12 11 10 11 10 9 8 7 7 7 6 6 6 6 5 5 5 5 5 5 5 5 5 4 4 4 4 4 4 4 3 2 2 3 3 2 2 4 3 3 4 4
8 8 10 10 5 8 7 7 6 9 8 8 4 6 8 5 8 7 10 7 8 6 8 12 12 13 15 16 17 17 16 16 15 14 13 15 14 14 13 13 12 13 13 13 14 14 15 14 15 16 15 15 15 14 14 13 12 11 11 11 10 10 10 9 8 9 9 8 6 7 7 7 7 5 6 6 6 5 4 4 4 4 4 4 4 3 3 3 2 4 3 3 4 3 3 3 4
4 9 9 8 3 3 5 6 2 5 8 5 7 7 5 4 1 1 5 8 6 7 8 10 11 13 15 15 16 17 16 15 15 15 14 15 14 14 13 13 14 13 14 15 15 14 13 14 15 16 16 16 15 15 15 13 13 12 12 12 11 11 10 10 9 9 8 7 7 6 6 7 7 7 6 5 5 6 5 5 4 4 4 4 4 4 5 4 3 4 3 3 4 2 3 3 4
7 8 5 10 9 11 7 3 6 5 7 7 5 7 6 4 2 5 5 3 7 6 7 9 11 13 13 14 16 17 18 16 14 15 14 14 14 14 14 14 14 14 14 15 15 14 13 13 14 16 17 16 16 14 13 12 13 11 11 12 13 11 10 10 9 8 8 8 9 8 8 6 7 6 5 4 5 6 6 6 5 5 5 5 5 5 4 4 4 4 3 5 4 4 4 4 4
10 6 6 7 4 8 9 7 5 3 7 6 7 3 2 4 5 6 6 4 4 4 7 7 10 12 11 11 13 15 16 15 14 14 14 14 14 15 14 14 15 15 14 13 14 13 15 14 14 14 15 15 15 15 14 13 13 12 11 12 12 11 11 10 9 9 9 9 9 8 9 8 8 7 7 7 6 6 6 7 7 7 6 6 7 7 6 5 5 5 5 6 4 5 5 5 6
11 9 8 9 7 2 2 2 7 6 6 4 6 5 3 4 5 6 5 5 4 2 2 5 5 9 11 11 10 9 12 13 14 13 13 14 14 14 14 14 13 13 13 13 14 14 14 13 14 15 15 16 16 15 15 13 12 12 12 13 13 12 13 11 11 10 10 9 9 8 8 7 7 7 6 7 7 7 6 6 6 6 6 6 6 6 6 5 5 5 5 6 5 4 5 6 5
10 9 9 9 11 10 10 7 7 10 7 3 4 4 3 4 2 5 5 5 4 4 1 2 3 7 8 9 10 7 7 9 12 13 14 14 13 13 14 12 11 11 12 13 13 13 13 14 13 13 13 13 14 14 13 13 12 12 14 13 14 13 12 11 12 11 11 10 9 9 8 8 8 8 8 8 8 7 7 7 7 7 6 6 6 6 7 6 6 7 7 7 7 7 7 7 5
Wind_Direction
171 187 182 197 234 240 242 224 236 161 218 112 106 124 87 85 86 118 102 148 122 106 95 127 125 143 6 43 59 46 39 6 18 293 75 105 137 133 133 136 131 132 131 131 128 140 138 122 121 114 111 93 98 98 103 113 109 99 93 96 105 124 138 174 141 113 121 100 105 109 110 103 101 107 113 111 108 109 107 102 101 103 103 93 82 77 90 88 85 76 74 84 88 86 93 100 98
168 184 177 146 243 263 190 195 279 150 141 110 89 100 97 105 163 101 111 84 88 123 123 128 129 72 103 80 69 135 83 36 15 79 96 117 125 125 130 138 137 135 130 128 138 139 122 118 114 110 99 92 94 103 107 109 102 94 97 93 71 95 159 145 135 147 113 109 105 107 107 105 104 110 112 107 111 110 106 102 102 102 105 104 88 72 72 84 81 82 92 88 85 95 95 97 98
176 176 183 216 232 246 338 218 241 137 136 113 97 93 126 115 93 85 83 82 101 114 132 123 114 109 109 154 110 339 86 40 82 105 109 134 126 128 136 138 136 130 128 129 122 118 118 108 113 108 102 101 103 100 97 103 106 109 115 109 128 165 159 125 147 129 119 113 109 110 108 108 109 107 106 104 99 103 102 99 102 102 101 102 106 104 85 75 84 92 88 89 98 102 103 102 99
176 211 247 237 223 185 234 194 245 161 99 99 115 106 112 104 94 93 85 108 112 126 133 135 110 32 320 98 57 94 77 83 71 115 124 151 124 132 135 133 135 135 123 126 124 119 110 118 119 114 108 109 107 98 92 97 107 122 137 152 144 174 154 144 134 124 119 110 104 104 107 108 106 105 105 101 96 99 102 107 104 102 98 99 104 98 86 83 86 94 95 96 94 98 103 101 99
204 214 273 256 297 207 268 289 327 94 109 98 111 113 106 100 108 113 116 118 122 132 140 126 104 88 68 54 19 36 68 94 107 117 118 109 124 128 133 137 143 131 134 129 124 113 110 114 130 126 118 115 107 102 105 105 100 94 139 149 146 158 146 127 122 118 116 108 109 106 107 109 108 107 105 104 103 101 99 102 97 91 98 103 100 93 84 81 87 89 89 88 92 97 99 103 104
217 274 239 252 225 313 275 206 148 68 57 15 120 114 105 99 120 125 120 119 117 146 126 116 87 135 96 48 24 82 90 132 125 121 122 121 129 131 128 141 135 132 120 116 115 117 117 123 127 124 105 86 104 131 129 116 112 122 121 130 96 124 116 115 115 110 107 108 108 110 109 107 105 108 106 102 101 104 105 100 102 102 103 103 103 104 102 95 93 98 98 100 98 95 98 103 105
282 237 208 218 234 214 265 68 95 97 78 1 95 116 119 114 124 137 127 125 133 130 135 100 113 123 116 116 85 62 67 99 152 122 124 127 128 132 137 141 139 127 130 127 112 103 101 117 113 96 88 116 139 112 117 115 116 108 101 96 105 114 104 106 105 107 107 109 110 110 108 109 112 109 107 103 101 104 104 101 101 101 101 106 113 114 114 105 92 95 110 106 102 101 98 105 108
244 271 53 266 154 225 210 84 74 20 105 40 56 110 112 126 145 143 134 146 140 152 147 124 98 77 80 247 90 79 90 74 103 114 117 132 131 135 144 139 138 134 129 121 113 100 109 104 75 70 109 126 108 94 109 111 105 98 103 108 120 110 103 106 105 103 108 107 110 110 111 113 113 112 108 106 107 105 104 106 102 102 102 101 103 108 112 113 110 95 88 96 103 106 108 107 108
219 259 239 327 223 229 125 64 82 56 101 126 88 59 110 125 144 144 135 122 135 135 145 138 90 88 99 102 89 96 89 108 111 116 129 130 135 137 140 147 138 130 128 121 108 114 97 64 74 124 151 106 139 144 124 115 112 121 133 123 119 99 99 103 108 107 107 107 110 111 110 108 107 110 112 112 109 111 113 111 111 111 108 103 103 106 106 107 110 88 79 85 93 110 120 115 108
240 258 192 257 300 154 106 123 148 97 109 91 119 133 140 145 143 164 141 126 120 136 119 102 91 111 123 109 114 118 109 116 123 128 130 133 131 140 138 137 130 127 121 106 103 85 79 96 139 178 112 151 164 140 108 108 104 119 116 122 115 108 97 105 108 115 114 110 112 110 109 110 111 110 111 113 114 112 110 116 113 109 108 103 101 100 102 103 103 89 73 93 103 122 112 105 100
249 190 307 258 189 125 169 119 101 142 126 130 113 126 135 152 158 133 90 116 144 129 123 138 124 119 114 94 87 95 118 126 134 131 133 129 134 143 133 126 131 130 122 105 95 102 102 94 104 145 129 127 117 110 122 106 121 134 137 142 116 103 98 107 106 111 120 119 118 116 113 113 111 112 115 115 113 105 103 109 113 118 108 107 100 99 108 105 93 87 101 86 80 71 91 102 102
254 210 165 270 118 354 93 117 130 111 124 152 133 148 155 171 162 148 138 153 150 135 136 178 120 135 123 117 112 126 131 135 128 129 131 134 138 132 134 136 125 120 113 111 105 105 102 115 149 172 165 136 117 116 152 145 127 118 139 144 113 100 108 110 111 125 123 124 124 121 116 113 112 115 120 121 114 110 108 112 112 107 113 102 102 90 92 105 109 135 123 107 108 90 100 100 100
283 292 256 258 65 272 85 141 119 142 150 162 139 130 166 180 179 151 144 140 139 133 124 129 130 168 126 112 117 129 137 131 132 134 139 141 131 138 135 123 125 110 105 109 103 103 119 132 149 173 100 110 122 126 137 120 111 121 142 130 120 118 118 116 123 132 122 125 127 122 119 118 116 118 120 116 112 108 104 107 115 118 122 121 121 110 108 120 134 136 114 114 107 100 92 92 96
285 328 309 342 153 67 200 87 136 175 154 119 72 129 170 190 171 149 148 138 121 76 82 124 157 117 108 119 136 141 135 137 133 138 138 132 131 142 130 125 120 117 110 107 106 104 109 100 204 136 113 108 91 121 118 109 117 129 142 145 140 120 119 120 120 127 131 134 130 116 118 116 115 118 119 116 110 102 99 93 93 102 107 110 115 133 129 107 99 98 101 108 107 92 85 85 86
295 326 276 303 141 208 112 205 164 175 131 137 116 162 149 69 138 162 148 125 102 91 96 122 112 162 154 155 148 146 142 140 136 139 134 134 138 132 132 123 122 119 109 101 95 100 87 83 172 129 117 129 130 129 95 105 110 106 126 139 136 116 117 125 126 128 131 132 126 113 115 115 117 115 116 113 110 108 98 95 93 97 92 92 97 97 103 101 98 99 96 103 101 95 88 86 86
313 289 271 261 134 278 130 244 130 210 116 157 138 142 138 117 154 150 65 355 105 118 181 117 167 331 145 154 143 134 139 138 141 140 136 134 134 136 135 133 123 114 106 102 99 95 102 128 147 125 96 125 133 135 122 114 115 108 109 121 103 99 113 128 125 123 128 125 108 103 118 109 109 111 114 112 102 100 100 93 93 94 96 97 93 94 90 96 98 102 99 95 96 99 98 93 91
278 267 255 281 150 239 92 210 147 38 141 130 152 165 152 138 124 66 137 163 147 122 115 127 103 187 116 114 127 133 136 135 144 141 136 138 149 143 143 132 131 117 113 102 102 106 112 94 125 108 133 119 131 116 108 104 110 116 120 128 110 116 118 117 112 113 120 111 109 116 148 116 95 99 107 106 110 99 98 98 95 90 90 88 88 86 89 91 94 92 92 95 98 102 102 103 97
264 243 284 256 356 68 284 17 38 131 153 155 171 172 150 141 157 152 173 145 109 128 116 107 94 95 105 114 128 131 134 143 146 149 147 147 156 148 152 145 150 132 127 114 110 109 101 113 152 148 125 134 134 120 114 107 105 109 117 142 115 123 123 118 116 113 108 107 116 128 125 121 122 119 139 111 100 111 100 94 84 75 78 84 88 85 85 88 90 90 96 98 107 121 161 134 129
262 287 263 281 28 66 359 11 9 341 151 168 164 160 161 147 159 171 176 152 151 141 135 129 108 112 117 127 132 136 143 145 152 153 153 154 156 151 153 139 141 134 121 124 119 121 120 122 143 148 135 137 121 121 103 104 110 108 134 129 110 107 109 118 119 114 104 107 103 101 100 108 142 135 132 103 109 101 96 91 94 94 83 84 87 86 85 92 92 99 105 119 136 183 163 112 116
229 290 281 44 27 1 37 15 10 67 358 164 163 164 159 147 171 169 196 157 172 156 148 147 133 134 133 135 142 143 147 150 154 154 155 155 149 151 141 144 138 128 127 125 123 120 131 125 122 122 131 141 137 113 113 116 119 121 114 118 115 150 129 122 128 112 106 114 119 111 107 101 103 99 109 122 131 121 108 97 93 106 111 98 132 129 128 109 128 125 135 186 192 148 84 114 112
67 264 297 51 34 325 79 358 29 6 323 202 175 160 159 163 154 178 171 168 190 162 164 159 145 145 140 143 148 150 151 152 155 156 154 152 152 152 145 142 134 131 122 121 126 126 132 142 140 139 139 138 140 117 118 122 130 124 114 123 130 132 121 133 131 114 118 121 124 127 120 122 118 119 131 120 102 111 114 131 147 119 104 102 144 111 117 127 158 116 143 194 98 116 112 102 81
298 304 356 349 336 282 44 343 337 322 306 245 184 179 176 143 157 180 174 199 162 166 157 157 146 149 147 148 152 155 154 154 155 157 153 157 152 147 144 130 120 120 129 132 121 134 140 147 139 135 137 136 134 127 116 118 123 96 99 114 124 132 128 118 121 132 130 122 131 129 128 122 123 123 118 113 113 111 120 108 106 107 110 109 153 111 99 107 116 119 104 91 76 85 95 61 56
268 170 234 39 358 311 329 312 306 289 248 224 199 204 144 167 165 177 182 229 20 114 137 137 144 149 147 144 153 157 156 156 152 155 151 154 150 150 145 132 138 138 136 116 136 134 142 147 140 136 130 134 129 114 121 126 121 130 155 140 132 132 132 130 134 134 124 131 139 137 138 136 136 133 125 122 116 122 111 115 106 107 110 107 120 111 108 112 112 110 103 81 86 84 83 86 95
263 292 39 332 343 306 321 299 292 264 245 232 218 177 171 166 162 167 184 131 158 121 138 131 140 147 147 146 158 157 154 155 152 146 156 145 148 148 143 132 126 123 125 131 141 143 147 139 133 126 128 139 130 126 123 119 127 132 121 132 130 130 135 131 127 118 132 143 144 146 153 151 145 131 130 125 123 128 118 113 106 112 110 104 97 104 111 109 101 97 72 73 56 41 72 79 94
250 258 68 355 314 334 319 313 294 289 257 237 216 185 185 168 149 154 174 173 137 131 132 135 143 149 151 146 157 156 153 155 150 145 144 135 143 139 139 128 134 140 134 140 140 141 138 132 140 127 123 131 131 137 131 124 124 126 132 124 123 141 132 131 128 142 145 141 143 152 165 150 137 129 132 133 124 110 114 110 108 101 98 107 124 108 102 103 100 87 60 51 73 47 89 91 113
230 297 198 342 345 336 352 309 288 289 272 216 213 156 85 81 114 144 162 152 136 137 138 140 150 153 152 151 154 157 157 154 149 148 142 137 139 145 141 136 138 144 136 137 141 135 137 144 136 127 127 134 138 142 130 128 127 127 126 123 123 139 130 128 145 147 141 144 143 150 145 149 131 131 125 114 119 114 113 117 113 104 108 115 120 106 112 105 83 70 53 51 54 66 72 74 76
226 138 87 30 33 352 342 327 343 343 322 207 196 119 112 114 175 142 179 155 145 144 141 147 156 155 154 151 155 160 161 155 155 147 141 140 144 147 139 141 143 135 141 140 132 136 133 149 134 126 130 142 145 140 126 125 121 122 127 128 133 127 126 139 146 140 145 140 131 132 132 117 128 119 115 125 119 116 111 113 110 121 115 115 116 111 97 74 68 61 45 22 42 50 69 56 45
190 141 139 105 102 61 6 6 6 331 32 145 121 93 108 109 311 165 167 155 150 149 144 152 159 154 153 150 153 164 161 155 153 153 148 149 153 147 143 144 143 140 144 138 133 142 146 140 133 137 133 139 142 128 131 130 126 128 134 136 133 126 139 140 137 133 131 124 127 131 126 120 98 103 113 116 111 115 115 118 132 123 112 114 103 76 83 64 67 64 76 49 84 88 84 78 82
165 181 196 151 157 64 24 25 34 73 77 71 98 93 94 163 172 106 160 148 156 153 145 156 157 154 153 149 153 164 162 155 156 158 152 144 145 146 142 148 140 146 137 137 138 149 140 137 130 142 136 139 146 132 133 125 129 131 135 136 132 138 142 138 133 129 125 127 127 126 120 122 127 118 114 113 118 121 121 132 118 117 116 120 113 79 69 116 100 113 90 129 81 122 91 92 125
186 214 272 168 207 74 36 40 45 106 103 146 314 116 120 179 147 181 160 156 159 151 150 157 159 158 154 154 155 167 164 160 165 154 149 143 149 143 138 147 136 140 136 139 148 145 136 132 144 143 140 144 145 132 131 133 133 130 133 134 134 144 136 135 131 126 130 132 132 134 129 125 123 118 127 127 150 133 128 128 127 121 120 121 112 139 115 87 70 58 55 98 105 79 89 89 86
218 181 245 261 268 358 48 18 60 95 169 170 258 113 165 140 144 172 167 165 166 156 156 160 161 161 157 157 158 170 167 173 161 155 150 145 145 143 149 137 143 134 148 151 149 139 144 139 145 137 151 140 151 134 140 131 136 135 137 139 139 145 140 140 137 135 140 137 139 133 135 132 127 127 121 137 132 136 142 132 130 122 111 137 130 95 290 91 71 80 57 39 47 88 96 82 62
204 213 225 205 88 136 82 51 11 109 175 240 308 118 149 141 210 179 172 176 170 162 161 159 164 163 161 159 160 174 171 173 166 159 151 149 143 153 145 142 149 142 151 148 138 149 144 139 153 141 152 151 140 141 138 131 135 134 135 138 137 151 148 141 139 142 136 141 137 133 136 134 134 129 127 134 148 146 132 131 122 113 123 141 103 75 244 107 78 51 41 34 35 52 102 105 103
200 240 285 253 119 178 146 59 46 19 141 192 359 101 84 152 175 174 179 177 172 171 167 163 162 164 163 160 167 171 171 168 170 163 150 153 148 147 146 147 147 150 146 149 148 149 149 137 161 144 151 147 145 143 138 136 138 137 145 146 138 154 149 135 139 138 138 136 134 130 138 140 131 129 124 119 158 146 136 130 131 126 129 112 142 156 157 70 332 70 52 46 58 4 66 103 106
207 223 252 80 290 166 128 106 71 51 275 195 218 148 167 146 160 165 171 176 177 176 176 161 164 162 165 164 168 166 176 171 168 162 153 155 143 148 144 144 144 153 145 152 154 153 153 146 155 142 141 152 148 143 146 149 141 139 142 133 145 151 138 135 135 142 135 125 140 126 132 137 132 122 111 96 73 65 82 85 97 98 116 118 163 180 145 82 125 24 45 44 49 26 63 92 123
219 214 232 172 56 330 90 140 264 192 51 246 202 277 127 143 162 174 172 176 183 184 175 166 166 165 167 170 168 165 181 174 162 165 151 152 141 151 142 152 150 153 159 151 154 152 151 152 141 141 150 153 144 144 145 142 140 143 135 141 137 136 130 125 132 136 139 146 124 120 129 136 119 120 95 89 165 96 107 101 107 86 124 173 182 202 169 80 14 36 5 34 69 57 55 57 73
274 266 222 352 213 141 68 77 133 186 174 198 217 227 122 148 167 180 177 184 192 188 175 172 176 167 173 170 169 168 181 174 158 160 151 151 145 151 145 155 152 155 156 146 151 155 157 157 150 152 158 157 151 153 159 155 153 152 146 142 144 143 136 139 149 141 140 135 119 135 126 125 112 116 102 78 62 55 93 109 102 151 154 186 195 261 72 119 39 14 5 26 46 130 116 127 126
309 254 285 211 281 116 135 122 100 182 170 213 186 15 147 166 175 175 185 192 201 199 181 175 187 176 177 178 168 173 181 173 160 155 155 149 149 151 150 153 156 154 151 152 160 159 163 163 158 160 163 162 163 164 169 162 160 150 152 159 149 151 151 147 158 148 146 135 125 122 139 142 124 117 102 107 94 101 139 117 144 153 176 155 188 168 13 7 19 341 8 328 57 121 117 135 92
263 241 224 62 52 157 65 130 146 181 251 150 167 121 140 174 178 189 186 200 205 200 185 181 185 185 186 183 168 178 176 177 160 159 161 158 155 152 153 157 157 157 160 163 167 164 167 164 164 162 164 169 171 171 166 168 167 163 163 163 157 151 154 166 157 165 162 131 144 147 163 127 129 126 117 133 130 162 158 159 161 159 172 159 166 115 333 338 4 356 3 167 82 78 117 66 86
268 265 209 93 320 354 72 112 171 155 87 226 177 187 171 182 195 192 201 204 210 209 195 186 185 187 189 188 178 174 182 181 169 168 168 166 161 158 157 161 161 164 165 168 165 166 168 166 165 164 167 169 174 170 175 170 170 168 175 162 167 150 160 171 157 161 162 145 157 161 146 145 149 148 144 159 157 181 163 164 167 158 169 153 170 177 356 341 9 11 308 8 112 133 114 110 133
242 227 255 235 277 270 170 142 156 191 256 344 147 214 178 172 218 231 210 209 210 211 206 199 193 190 191 193 184 183 181 182 182 177 174 171 166 164 164 164 165 164 170 166 169 168 172 169 165 169 167 172 171 170 180 171 164 162 171 165 157 157 157 144 136 158 173 155 159 158 158 157 164 157 152 163 161 153 163 173 163 151 154 140 165 125 276 296 9 7 0 69 302 198 131 102 98
216 227 220 135 225 226 333 86 178 90 213 261 247 230 206 180 171 209 208 209 215 209 206 209 202 203 197 199 191 191 185 186 187 186 181 174 173 171 171 167 169 166 173 169 174 173 176 170 168 171 169 171 170 168 174 167 158 164 162 159 155 134 143 161 169 169 170 166 167 170 153 156 154 146 146 167 151 146 155 178 162 153 155 167 152 173 227 50 7 37 45 11 25 352 94 102 77
201 166 268 27 200 270 85 118 189 202 190 201 227 223 228 179 181 191 188 192 205 209 209 202 200 201 199 202 196 193 193 186 197 193 187 179 178 171 170 174 176 170 175 172 177 175 174 170 166 172 170 170 170 166 171 168 167 164 166 166 169 167 166 174 181 171 168 172 174 150 141 159 151 150 156 169 152 153 158 162 173 171 163 159 189 341 54 245 208 353 60 351 64 49 338 128 133
248 102 122 167 302 65 169 149 252 221 246 129 204 261 47 219 196 191 198 196 202 200 212 208 202 201 199 204 203 196 196 190 195 198 192 187 181 177 176 181 183 175 174 173 177 173 172 170 167 172 170 171 166 166 169 173 169 171 178 179 175 174 170 171 177 179 162 165 139 143 141 144 154 162 155 165 149 149 154 157 164 187 153 149 183 179 205 231 87 53 21 33 16 28 349 41 91
216 95 128 157 170 135 114 71 306 310 316 175 235 207 257 182 214 187 190 204 203 202 209 214 208 204 205 202 203 202 196 196 193 197 198 196 183 186 184 182 187 179 171 170 175 171 170 173 169 172 171 171 168 163 172 176 174 175 180 186 181 184 179 163 170 170 148 138 145 152 147 145 149 152 137 149 159 153 152 152 164 185 195 143 178 215 224 357 45 63 49 48 17 15 6 9 355
60 81 113 128 119 108 281 184 257 274 251 247 189 210 239 241 159 158 178 194 197 206 210 210 211 207 205 207 202 202 204 198 198 194 197 197 191 192 189 185 185 178 169 170 172 168 168 171 173 173 173 174 169 167 173 176 178 177 181 180 181 188 179 165 167 165 154 159 155 144 147 139 146 151 146 147 154 146 159 156 167 190 183 185 210 190 213 116 71 67 60 46 49 38 18 35 351
146 157 145 124 154 188 299 257 162 235 257 252 209 183 246 264 153 172 180 204 198 201 208 213 211 209 206 206 205 201 202 202 202 199 196 195 198 198 193 189 181 180 167 167 168 167 169 169 173 177 174 178 171 171 176 176 179 178 184 182 177 175 177 169 171 159 161 165 167 161 155 162 172 160 160 166 155 169 162 167 182 178 199 178 244 70 81 113 146 145 93 56 38 41 20 2 10
84 178 190 172 160 180 206 240 271 256 247 249 232 191 239 276 189 181 170 202 203 192 191 209 212 211 210 206 205 201 200 201 202 201 196 196 198 200 194 188 180 176 165 168 168 168 170 171 173 179 179 179 175 176 177 179 180 182 186 182 180 175 173 168 172 169 169 168 177 168 167 171 179 171 171 164 181 176 172 191 192 179 205 149 209 185 197 195 161 165 124 108 85 26 24 20 273
204 192 217 191 165 161 206 218 215 251 245 228 243 192 211 249 156 188 203 199 195 178 187 201 205 205 206 204 203 203 200 201 201 201 201 197 197 199 193 185 179 173 168 172 170 170 171 170 173 178 181 183 180 180 182 182 183 184 189 185 185 183 182 175 179 178 175 177 178 173 167 169 185 178 203 172 190 183 169 200 209 185 190 189 179 219 156 209 113 127 128 153 128 82 27 12 332
212 212 206 213 207 175 238 238 214 218 257 94 26 179 215 236 257 240 191 208 195 185 188 200 203 200 200 201 199 202 201 200 201 200 203 198 195 194 193 182 174 172 173 179 174 172 169 171 173 179 181 184 184 183 186 187 188 185 189 189 189 189 191 191 186 187 181 183 187 174 170 187 185 196 198 197 192 185 170 197 203 199 180 190 54 29 123 100 358 321 108 200 118 193 199 286 264
210 212 211 208 218 206 240 221 252 273 134 69 197 166 255 279 253 244 246 212 205 194 190 200 204 197 195 196 196 197 200 202 201 200 202 199 191 190 189 182 177 177 177 180 178 175 170 171 174 181 182 185 184 188 188 190 191 191 191 191 190 190 195 194 195 196 190 185 189 191 188 186 187 199 193 205 199 186 184 180 191 200 188 180 181 156 141 118 313 285 163 234 202 167 247 236 264
221 224 212 227 218 220 230 224 217 247 121 180 145 207 244 228 103 93 68 0 203 199 196 196 202 201 195 194 195 194 196 199 203 202 199 197 190 188 185 184 183 181 181 181 178 176 173 172 174 180 182 184 186 189 188 191 192 192 192 196 194 194 196 197 197 198 193 195 196 190 202 199 197 196 199 188 202 193 195 180 194 204 186 196 188 198 180 161 196 243 276 238 294 175 228 262 239
208 218 211 223 236 207 242 19 284 259 243 189 175 235 250 279 105 132 144 141 157 199 196 189 195 202 197 190 194 196 196 194 198 203 200 198 191 187 186 187 185 184 181 183 178 175 179 176 175 180 183 184 186 188 190 191 193 190 192 198 197 194 199 199 193 200 195 203 196 203 192 206 217 192 198 192 189 198 200 204 196 204 206 194 196 198 219 205 195 234 222 226 236 202 211 221 252
167 198 215 224 252 229 248 253 254 281 272 263 206 229 230 259 255 233 178 163 155 175 194 193 188 189 193 192 189 192 195 195 196 200 202 197 194 191 190 187 187 185 182 184 179 179 180 175 177 180 183 185 187 189 190 189 192 192 191 196 199 195 198 201 199 196 198 196 196 201 198 200 198 207 196 194 199 190 197 213 217 209 193 215 199 204 215 217 220 238 223 229 246 243 216 238 256
156 224 215 204 254 268 230 265 330 290 265 211 206 226 247 241 257 66 171 186 177 165 188 195 187 184 189 191 190 190 190 191 192 197 201 200 196 191 192 190 189 185 184 183 182 180 178 178 180 181 182 186 186 188 189 188 189 191 191 194 199 201 198 203 205 200 204 194 194 208 210 194 203 196 205 194 193 189 196 208 212 225 222 211 219 209 206 213 218 243 224 230 238 248 230 240 244
241 251 153 195 190 206 198 229 252 256 229 227 206 229 261 253 203 126 130 184 174 176 167 180 189 190 189 189 190 190 188 186 189 195 196 200 195 193 192 192 189 187 187 185 180 180 177 181 183 186 187 187 188 187 189 188 188 191 190 192 194 199 202 203 202 206 207 205 203 196 208 201 202 192 192 215 209 204 200 198 213 216 205 216 210 220 207 218 216 240 229 233 209 219 238 234 234
238 261 218 204 243 216 201 213 248 241 278 253 190 209 219 56 31 45 59 7 39 147 154 179 202 193 188 192 193 191 190 188 186 190 196 197 198 196 190 192 191 188 188 186 181 183 182 183 183 188 186 186 189 190 186 191 192 195 190 189 192 195 201 202 197 203 208 201 207 204 200 197 208 197 197 201 212 218 208 215 207 216 218 212 209 211 215 208 221 235 241 245 205 204 230 233 245
195 219 208 176 203 84 261 341 259 249 263 292 262 221 183 55 17 354 12 20 8 0 162 139 215 214 193 192 191 185 187 185 186 187 192 197 198 195 189 193 194 189 184 184 181 186 184 184 182 189 186 187 189 191 187 191 191 195 190 190 189 193 198 198 198 194 207 202 200 212 203 209 189 213 208 207 214 216 221 221 230 228 223 218 217 220 217 218 215 219 234 249 266 227 231 237 227
201 208 207 203 184 183 201 210 207 248 247 237 275 221 108 53 8 353 4 12 8 13 84 142 215 223 201 191 188 168 178 173 180 187 195 196 195 194 192 190 189 185 181 187 183 184 181 185 182 189 184 189 189 192 189 187 194 191 192 190 192 192 196 198 201 193 204 198 203 201 207 210 209 202 210 215 213 212 213 221 225 223 229 229 216 218 230 222 219 220 229 224 220 225 231 239 243